{"data":{"norad_id":64066,"intl_designator":"2025-107C","name":"STARLINK-11737 [DTC]","alt_names":[],"object_type":"PAYLOAD","status":"ACTIVE","operator":null,"country":"US","launch_date":"2025-05-21","launch_site_code":"AFETR","launch_vehicle":null,"mission":null,"orbit_class":"UNKNOWN","rcs_meters":null,"size_class":null,"mass_kg":null,"dimensions":null,"purposes":["comms"],"wikipedia_slug":null,"has_3d_model":false,"image_url":null,"decayed_at":null,"tle_current":{"epoch":"2026-05-24T23:06:08.972640Z","epoch_age_seconds":81421,"freshness":"FRESH","line1":"1 64066U 25107C   26144.96260385  .00175181  00000+0  13382-2 0  9994","line2":"2 64066  43.0004 358.5022 0002197 272.8145  87.2471 15.70874231 59290","mean_motion":15.70874231,"eccentricity":0.0002197,"inclination_deg":43.0004,"raan_deg":358.5022,"arg_perigee_deg":272.8145,"mean_anomaly_deg":87.2471,"bstar":0.0013382,"rev_number":5929,"period_min":91.668700878957,"perigee_km":354.91764757162,"apogee_km":357.87680190997,"semimajor_km":6734.5342247408,"source":"CELESTRAK","updated_at":"2026-05-25T13:38:20.257651Z"}}}